GFSNIL_prec_precacc_090.txt.gz
Total_Precipitation_Accumulation
0.13 0.10 0.13 0.06 0.11 0.09 0.09 0.13 0.29 0.17 0.15 0.18 0.16 0.23 0.32 0.46 0.61 0.77 0.96 1.03 0.92 0.77
0.18 0.12 0.15 0.14 0.10 0.25 0.25 0.20 0.23 0.25 0.28 0.38 0.45 0.56 0.68 0.80 0.88 0.90 0.85 0.75 0.74 0.78
0.17 0.21 0.20 0.28 0.40 0.54 0.41 0.36 0.41 0.62 0.83 0.87 0.86 0.77 0.77 0.83 0.85 0.76 0.71 0.69 0.69 0.58
0.12 0.25 0.46 0.51 0.84 0.70 0.67 0.88 1.19 1.41 1.30 1.14 1.04 1.02 1.06 1.01 0.93 0.78 0.57 0.41 0.30 0.22
0.42 0.67 0.98 0.96 1.10 1.36 1.64 1.54 1.55 1.40 1.22 1.06 0.89 0.83 0.87 0.79 0.64 0.49 0.28 0.15 0.10 0.11
0.91 0.78 0.97 0.88 0.81 0.93 0.98 0.99 1.03 0.99 0.88 0.81 0.77 0.69 0.57 0.40 0.31 0.22 0.14 0.10 0.09 0.08
0.48 0.66 0.58 0.70 0.87 1.07 1.03 0.79 0.67 0.62 0.56 0.39 0.23 0.17 0.14 0.12 0.11 0.09 0.08 0.09 0.08 0.08
0.34 0.45 0.48 0.41 0.37 0.37 0.42 0.39 0.42 0.31 0.24 0.17 0.12 0.12 0.12 0.09 0.09 0.09 0.09 0.10 0.10 0.12
0.29 0.31 0.33 0.36 0.30 0.27 0.27 0.22 0.18 0.16 0.13 0.10 0.10 0.23 0.16 0.13 0.06 0.10 0.13 0.16 0.18 0.22
0.21 0.23 0.20 0.14 0.15 0.16 0.17 0.17 0.12 0.09 0.09 0.10 0.11 0.28 0.15 0.15 0.07 0.10 0.15 0.16 0.14 0.13
0.05 0.05 0.06 0.09 0.15 0.16 0.12 0.08 0.09 0.09 0.10 0.11 0.18 0.22 0.11 0.12 0.06 0.08 0.13 0.14 0.13 0.12
0.04 0.09 0.12 0.15 0.13 0.09 0.12 0.11 0.06 0.07 0.09 0.08 0.13 0.18 0.10 0.08 0.03 0.06 0.09 0.09 0.08 0.09
0.10 0.12 0.10 0.08 0.07 0.09 0.09 0.10 0.09 0.10 0.10 0.15 0.08 0.18 0.09 0.06 0.04 0.09 0.07 0.06 0.06 0.07
0.04 0.06 0.09 0.09 0.07 0.08 0.09 0.08 0.07 0.06 0.07 0.06 0.07 0.08 0.07 0.04 0.05 0.10 0.14 0.06 0.04 0.05

GFSNIL_prec_precacc_096.txt.gz
Total_Precipitation_Accumulation
0.13 0.10 0.13 0.06 0.11 0.09 0.09 0.13 0.29 0.17 0.16 0.21 0.21 0.29 0.41 0.53 0.65 0.82 1.02 1.08 0.95 0.81
0.18 0.12 0.15 0.14 0.10 0.25 0.25 0.20 0.23 0.25 0.28 0.39 0.47 0.59 0.74 0.87 0.94 0.95 0.94 0.80 0.80 0.85
0.17 0.21 0.20 0.28 0.40 0.55 0.41 0.36 0.41 0.62 0.84 0.88 0.88 0.78 0.80 0.87 0.89 0.79 0.73 0.72 0.71 0.59
0.12 0.25 0.46 0.51 0.84 0.70 0.67 0.88 1.19 1.41 1.31 1.15 1.05 1.04 1.07 1.02 0.94 0.79 0.58 0.42 0.31 0.23
0.42 0.67 0.98 0.96 1.10 1.36 1.64 1.54 1.55 1.40 1.22 1.06 0.89 0.84 0.87 0.79 0.64 0.50 0.31 0.17 0.13 0.12
0.91 0.78 0.97 0.88 0.81 0.93 0.98 0.99 1.03 0.99 0.88 0.81 0.77 0.69 0.57 0.41 0.32 0.24 0.16 0.13 0.12 0.10
0.48 0.66 0.58 0.70 0.87 1.07 1.03 0.79 0.67 0.62 0.56 0.39 0.23 0.17 0.14 0.12 0.11 0.11 0.12 0.15 0.14 0.13
0.34 0.45 0.48 0.41 0.37 0.37 0.42 0.39 0.42 0.31 0.24 0.17 0.12 0.13 0.13 0.13 0.12 0.13 0.16 0.18 0.21 0.27
0.29 0.31 0.33 0.36 0.30 0.27 0.27 0.23 0.18 0.16 0.13 0.11 0.10 0.25 0.20 0.16 0.08 0.16 0.24 0.30 0.32 0.37
0.21 0.23 0.20 0.14 0.15 0.16 0.17 0.17 0.12 0.10 0.09 0.11 0.12 0.34 0.18 0.19 0.11 0.20 0.25 0.24 0.20 0.19
0.05 0.05 0.06 0.09 0.15 0.16 0.12 0.09 0.10 0.11 0.11 0.13 0.24 0.30 0.15 0.16 0.07 0.13 0.20 0.20 0.19 0.19
0.04 0.09 0.12 0.15 0.13 0.09 0.12 0.12 0.07 0.09 0.11 0.12 0.17 0.25 0.14 0.10 0.03 0.09 0.12 0.11 0.13 0.14
0.10 0.12 0.10 0.08 0.07 0.09 0.10 0.11 0.11 0.12 0.13 0.21 0.11 0.25 0.12 0.08 0.05 0.11 0.10 0.08 0.10 0.14
0.04 0.06 0.09 0.09 0.07 0.09 0.10 0.10 0.10 0.09 0.09 0.08 0.10 0.12 0.09 0.05 0.05 0.11 0.15 0.06 0.05 0.06

GFSNIL_prec_precacc_102.txt.gz
Total_Precipitation_Accumulation
0.13 0.10 0.13 0.06 0.11 0.10 0.13 0.22 0.36 0.20 0.17 0.23 0.23 0.34 0.47 0.57 0.68 0.84 1.03 1.09 0.96 0.83
0.18 0.12 0.15 0.14 0.10 0.25 0.29 0.29 0.32 0.31 0.30 0.40 0.48 0.61 0.77 0.89 0.97 0.97 0.96 0.81 0.81 0.86
0.17 0.21 0.20 0.28 0.40 0.55 0.43 0.42 0.47 0.65 0.84 0.88 0.88 0.79 0.81 0.87 0.90 0.81 0.74 0.73 0.72 0.60
0.12 0.25 0.46 0.51 0.84 0.70 0.68 0.89 1.19 1.41 1.31 1.15 1.05 1.04 1.07 1.02 0.95 0.80 0.58 0.42 0.32 0.23
0.42 0.67 0.98 0.96 1.10 1.36 1.64 1.54 1.55 1.40 1.22 1.06 0.89 0.84 0.88 0.79 0.65 0.50 0.31 0.18 0.15 0.13
0.91 0.78 0.97 0.88 0.81 0.93 0.98 0.99 1.03 0.99 0.88 0.81 0.77 0.69 0.57 0.41 0.32 0.24 0.16 0.14 0.18 0.14
0.48 0.66 0.58 0.70 0.87 1.07 1.03 0.79 0.67 0.62 0.56 0.39 0.24 0.17 0.14 0.12 0.12 0.11 0.14 0.18 0.17 0.15
0.34 0.45 0.48 0.41 0.37 0.37 0.42 0.39 0.42 0.31 0.24 0.17 0.13 0.13 0.13 0.13 0.13 0.13 0.16 0.18 0.21 0.28
0.29 0.31 0.33 0.36 0.30 0.27 0.27 0.23 0.19 0.17 0.13 0.11 0.10 0.25 0.20 0.16 0.08 0.17 0.25 0.31 0.34 0.41
0.21 0.23 0.20 0.14 0.15 0.16 0.17 0.17 0.13 0.10 0.09 0.11 0.12 0.35 0.19 0.20 0.11 0.22 0.30 0.30 0.26 0.25
0.06 0.05 0.06 0.09 0.15 0.16 0.12 0.09 0.10 0.11 0.12 0.14 0.26 0.34 0.17 0.19 0.09 0.19 0.29 0.29 0.28 0.28
0.08 0.12 0.13 0.15 0.13 0.09 0.12 0.12 0.09 0.11 0.14 0.15 0.20 0.31 0.18 0.14 0.06 0.18 0.24 0.23 0.28 0.30
0.20 0.17 0.12 0.08 0.07 0.09 0.10 0.13 0.13 0.16 0.18 0.30 0.17 0.36 0.20 0.14 0.07 0.18 0.22 0.23 0.28 0.32
0.18 0.13 0.14 0.11 0.08 0.09 0.12 0.14 0.16 0.17 0.18 0.19 0.20 0.26 0.23 0.15 0.08 0.16 0.26 0.18 0.16 0.17

GFSNIL_prec_precacc_105.txt.gz
Total_Precipitation_Accumulation
0.13 0.10 0.13 0.06 0.11 0.12 0.18 0.29 0.49 0.35 0.31 0.39 0.39 0.51 0.63 0.73 0.79 0.86 1.04 1.09 0.96 0.83
0.18 0.12 0.15 0.14 0.11 0.26 0.31 0.35 0.46 0.48 0.44 0.56 0.67 0.78 0.96 1.07 1.16 1.07 0.99 0.83 0.82 0.87
0.17 0.21 0.20 0.28 0.40 0.55 0.44 0.48 0.53 0.74 0.98 1.03 1.08 0.94 0.96 1.02 1.03 0.91 0.78 0.74 0.73 0.60
0.12 0.25 0.46 0.51 0.84 0.70 0.68 0.93 1.28 1.48 1.38 1.20 1.09 1.09 1.10 1.07 0.99 0.83 0.60 0.43 0.32 0.23
0.42 0.67 0.98 0.96 1.10 1.36 1.64 1.55 1.58 1.46 1.29 1.07 0.89 0.84 0.88 0.79 0.65 0.50 0.31 0.18 0.16 0.14
0.91 0.78 0.97 0.88 0.81 0.93 0.98 0.99 1.03 1.00 0.89 0.82 0.77 0.69 0.57 0.41 0.32 0.24 0.16 0.15 0.18 0.14
0.48 0.66 0.58 0.70 0.87 1.07 1.03 0.79 0.67 0.62 0.56 0.39 0.24 0.17 0.14 0.12 0.12 0.11 0.14 0.18 0.17 0.15
0.34 0.45 0.48 0.41 0.37 0.37 0.42 0.39 0.42 0.31 0.24 0.17 0.13 0.13 0.13 0.13 0.13 0.13 0.16 0.18 0.21 0.28
0.29 0.31 0.33 0.36 0.30 0.27 0.27 0.23 0.19 0.17 0.13 0.11 0.10 0.25 0.20 0.16 0.08 0.17 0.25 0.31 0.34 0.41
0.22 0.23 0.20 0.14 0.15 0.16 0.17 0.17 0.13 0.10 0.09 0.11 0.12 0.35 0.19 0.20 0.11 0.22 0.30 0.30 0.27 0.26
0.13 0.09 0.07 0.09 0.15 0.16 0.12 0.09 0.10 0.11 0.12 0.14 0.26 0.34 0.17 0.19 0.09 0.20 0.30 0.31 0.31 0.31
0.16 0.21 0.18 0.16 0.13 0.09 0.12 0.12 0.09 0.11 0.14 0.15 0.20 0.32 0.19 0.15 0.07 0.20 0.27 0.26 0.30 0.33
0.26 0.24 0.18 0.14 0.10 0.09 0.10 0.13 0.13 0.16 0.19 0.31 0.17 0.38 0.23 0.16 0.08 0.20 0.25 0.27 0.37 0.46
0.24 0.21 0.19 0.16 0.13 0.11 0.12 0.14 0.17 0.17 0.19 0.21 0.23 0.30 0.27 0.19 0.10 0.17 0.30 0.25 0.25 0.33